Radiation Dose measured at exhaust stack monitor of Fukushima Daiichi Nuclear Power Station
Date,Time,Unit 5 6 shared exhaust cylinders,Wind Direction,Wind Velocity(m/s)
2021/12/13,00:00,4.1,west,9.3
2021/12/13,00:10,4.1,west,8.8
2021/12/13,00:20,4.0,west,9.4
2021/12/13,00:30,3.9,west,11.1
2021/12/13,00:40,4.2,west,9.0
2021/12/13,00:50,4.3,west,8.6
2021/12/13,01:00,3.8,west,8.6
2021/12/13,01:10,4.1,west,8.8
2021/12/13,01:20,4.0,west,7.5
2021/12/13,01:30,3.9,west-northwest,9.2
2021/12/13,01:40,4.0,northwest,8.4
2021/12/13,01:50,3.8,north-northwest,6.7
2021/12/13,02:00,3.8,northwest,6.9
2021/12/13,02:10,4.0,northwest,6.3
2021/12/13,02:20,4.1,northwest,8.1
2021/12/13,02:30,4.0,northwest,6.5
2021/12/13,02:40,3.9,northwest,7.3
2021/12/13,02:50,3.8,northwest,7.0
2021/12/13,03:00,4.0,north-northwest,5.3
2021/12/13,03:10,4.0,north-northwest,7.1
2021/12/13,03:20,4.1,north-northwest,8.6
2021/12/13,03:30,4.1,northwest,8.7
2021/12/13,03:40,4.0,north-northwest,7.6
2021/12/13,03:50,3.9,north-northwest,8.2
2021/12/13,04:00,4.0,north-northwest,6.3
2021/12/13,04:10,4.1,north-northwest,6.4
2021/12/13,04:20,3.9,north-northwest,7.3
2021/12/13,04:30,3.9,north-northwest,6.3
2021/12/13,04:40,4.0,northwest,5.1
2021/12/13,04:50,3.9,northwest,3.1
2021/12/13,05:00,4.0,north,1.5
2021/12/13,05:10,4.0,north,2.0
2021/12/13,05:20,4.1,north,4.2
2021/12/13,05:30,4.0,north,5.1
2021/12/13,05:40,4.0,north,6.6
2021/12/13,05:50,3.9,north,7.2
2021/12/13,06:00,3.9,north,6.5
2021/12/13,06:10,3.9,north,5.3
2021/12/13,06:20,4.1,north-northwest,5.1
2021/12/13,06:30,4.0,north,3.3
2021/12/13,06:40,4.0,north-northwest,1.4
2021/12/13,06:50,4.0,north-northeast,2.0
2021/12/13,07:00,4.0,northeast,1.2
2021/12/13,07:10,4.1,west,1.5
2021/12/13,07:20,4.0,west-northwest,3.2
2021/12/13,07:30,3.8,west-southwest,1.4
2021/12/13,07:40,4.0,northwest,4.8
2021/12/13,07:50,4.0,north-northwest,4.0
2021/12/13,08:00,3.9,north,4.2
2021/12/13,08:10,3.9,north,2.0
2021/12/13,08:20,4.0,northwest,1.1
2021/12/13,08:30,4.0,west-northwest,6.0
2021/12/13,08:40,4.1,west-northwest,8.0
2021/12/13,08:50,3.8,northwest,8.5
2021/12/13,09:00,3.8,west,4.7
2021/12/13,09:10,4.0,west-northwest,5.9
2021/12/13,09:20,3.9,west-northwest,3.2
2021/12/13,09:30,3.8,west,5.3
2021/12/13,09:40,3.8,west,7.9
2021/12/13,09:50,4.0,west-northwest,9.8
2021/12/13,10:00,3.9,west-northwest,10.5
2021/12/13,10:10,4.0,west-northwest,12.7
2021/12/13,10:20,4.0,west-northwest,11.8
2021/12/13,10:30,4.1,west-northwest,7.7
2021/12/13,10:40,4.1,west-southwest,5.3
2021/12/13,10:50,4.0,west-southwest,6.8
2021/12/13,11:00,3.9,west,8.4
2021/12/13,11:10,4.0,northwest,10.4
2021/12/13,11:20,3.9,west-southwest,4.3
2021/12/13,11:30,3.9,west-northwest,5.8
2021/12/13,11:40,4.0,west,6.9
2021/12/13,11:50,3.8,west,8.5
2021/12/13,12:00,3.8,west,10.3
2021/12/13,12:10,3.9,west,7.2
2021/12/13,12:20,3.8,west,9.9
2021/12/13,12:30,3.9,west-northwest,11.6
2021/12/13,12:40,3.9,west-northwest,8.6
2021/12/13,12:50,4.0,west,12.1
2021/12/13,13:00,3.8,west-northwest,10.0
2021/12/13,13:10,3.9,west,10.7
2021/12/13,13:20,4.1,west,11.4
2021/12/13,13:30,3.8,west-northwest,12.7
2021/12/13,13:40,4.0,west,12.0
2021/12/13,13:50,4.1,west,10.2
2021/12/13,14:00,3.7,west,13.1
2021/12/13,14:10,3.9,west,11.8
2021/12/13,14:20,4.1,west,12.1
2021/12/13,14:30,3.8,west-northwest,13.3
2021/12/13,14:40,4.1,west-northwest,12.4
2021/12/13,14:50,4.0,west-northwest,14.6
2021/12/13,15:00,3.8,west,12.0
2021/12/13,15:10,3.9,west-northwest,8.8
2021/12/13,15:20,4.0,west,9.0
2021/12/13,15:30,4.1,west-northwest,8.1
2021/12/13,15:40,3.9,west-northwest,7.0
2021/12/13,15:50,3.9,west-northwest,8.0
2021/12/13,16:00,4.1,northwest,9.6
2021/12/13,16:10,4.0,west-northwest,8.5
2021/12/13,16:20,4.1,west-northwest,8.4
2021/12/13,16:30,4.0,northwest,5.6
2021/12/13,16:40,3.9,northwest,6.2
2021/12/13,16:50,4.1,west-northwest,8.8
2021/12/13,17:00,4.0,northwest,9.0
2021/12/13,17:10,3.9,west-northwest,7.4
2021/12/13,17:20,4.0,west-northwest,8.0
2021/12/13,17:30,4.1,west-northwest,11.7
2021/12/13,17:40,4.1,west-northwest,12.4
2021/12/13,17:50,4.0,west-northwest,13.9
2021/12/13,18:00,4.0,west-northwest,13.0
2021/12/13,18:10,4.0,west-northwest,12.0
2021/12/13,18:20,4.0,west-northwest,11.0
2021/12/13,18:30,4.2,west-northwest,15.0
2021/12/13,18:40,3.9,west-northwest,13.6
2021/12/13,18:50,4.0,west-northwest,9.4
2021/12/13,19:00,4.1,west-northwest,10.0
2021/12/13,19:10,4.0,west-northwest,9.2
2021/12/13,19:20,3.9,west-northwest,7.4
2021/12/13,19:30,3.9,west-northwest,11.1
2021/12/13,19:40,4.1,west-northwest,8.4
2021/12/13,19:50,4.0,west-northwest,7.7
2021/12/13,20:00,4.0,west-northwest,8.9
2021/12/13,20:10,4.0,west-northwest,6.5
2021/12/13,20:20,3.8,west-northwest,6.1
2021/12/13,20:30,3.9,west-northwest,3.9
2021/12/13,20:40,4.1,west-northwest,1.7
2021/12/13,20:50,4.1,northwest,2.2
2021/12/13,21:00,4.0,northwest,3.7
2021/12/13,21:10,3.9,northwest,3.7
2021/12/13,21:20,3.8,west-northwest,3.8
2021/12/13,21:30,3.9,west,1.7
2021/12/13,21:40,4.0,south,2.3
2021/12/13,21:50,3.9,west-southwest,3.0
2021/12/13,22:00,4.0,west-southwest,4.5
2021/12/13,22:10,3.9,west,6.4
2021/12/13,22:20,3.9,west,6.0
2021/12/13,22:30,4.1,west,5.8
2021/12/13,22:40,4.1,west,3.8
2021/12/13,22:50,4.0,south-southwest,2.8
2021/12/13,23:00,4.0,south-southwest,2.3
2021/12/13,23:10,4.0,southwest,2.5
2021/12/13,23:20,4.0,west-southwest,2.6
2021/12/13,23:30,3.9,west,3.0
2021/12/13,23:40,3.9,west,3.4
2021/12/13,23:50,3.9,west,3.9
